Regional Weather Roundup
Issued by NWS

Home | Current Version | Previous Version | Text Only | Print | Product List | Glossary On
Versions: 1 2 3 4 5 6 7 8 9 10 11 12 13 14 15 16 17 18 19 20 21 22 23 24 25 26 27 28 29 30 31 32 33 34 35 36 37 38 39 40 41 42 43 44 45 46 47 48 49 50
000
ASUS46 KPQR 171810
RWROR

OREGON REGIONAL WEATHER ROUNDUP
NATIONAL WEATHER SERVICE PORTLAND OR
1100 AM PDT WED SEP 17 2014

NOTE: "FAIR" INDICATES FEW OR NO CLOUDS BELOW 12,000 FEET WITH
NO SIGNIFICANT WEATHER AND/OR OBSTRUCTIONS TO VISIBILITY.

ORZ001>013-171900-
NORTHWEST OREGON


CITY           SKY/WX    TMP DP  RH WIND       PRES   REMARKS
ASTORIA        CLOUDY    63  58  83 N8        29.72F
6HR MIN TEMP:  54; 6HR MAX TEMP:  64; 6HR PCP: TRACE;

PORTLAND       CLOUDY    67  56  67 CALM      29.72S
6HR MIN TEMP:  61; 6HR MAX TEMP:  68;

VANCOUVER WA   CLOUDY    68  55  63 VRB3      29.71F
6HR MIN TEMP:  60; 6HR MAX TEMP:  68; 6HR PCP: TRACE;

SCAPPOOSE      CLOUDY    72  54  53 N8        29.71S
6HR MIN TEMP:  57; 6HR MAX TEMP:  73;

HILLSBORO      CLOUDY    70  56  61 S3        29.72S
6HR MIN TEMP:  57; 6HR MAX TEMP:  70;

AURORA         CLOUDY    67  55  65 CALM      29.74F
6HR MIN TEMP:  60; 6HR MAX TEMP:  68;

MCMINNVILLE    CLOUDY    68  56  65 SE6       29.74S
6HR MIN TEMP:  58; 6HR MAX TEMP:  68;

SALEM          CLOUDY    68  54  60 CALM      29.73S
6HR MIN TEMP:  61; 6HR MAX TEMP:  68;

CORVALLIS      CLOUDY    66  55  68 S3        29.76S
EUGENE         CLOUDY    67  54  63 CALM      29.75F
6HR MIN TEMP:  57; 6HR MAX TEMP:  67;

$$

ORZ021-028-171900-
SOUTHWEST OREGON


CITY           SKY/WX    TMP DP  RH WIND       PRES   REMARKS
NORTH BEND     CLOUDY    63  57  82 W8        29.76R
6HR MIN TEMP:  55; 6HR MAX TEMP:  64;

BROOKINGS      CLOUDY    59  56  89 S5        29.79R
ROSEBURG       CLOUDY    67  53  61 SW3       29.75F
6HR MIN TEMP:  61; 6HR MAX TEMP:  67;

SEXTON SUMMIT  CLOUDY    65  39  38 SE3       29.84S
6HR MIN TEMP:  59; 6HR MAX TEMP:  65;

MEDFORD        CLOUDY    69  45  41 CALM      29.75F HAZE
6HR MIN TEMP:  61; 6HR MAX TEMP:  70;

$$

ORZ009-041-171900-
COLUMBIA GORGE


CITY           SKY/WX    TMP DP  RH WIND       PRES   REMARKS
TROUTDALE      CLOUDY    68  55  63 NW3       29.71S
6HR MIN TEMP:  58; 6HR MAX TEMP:  68;

THE DALLES     CLOUDY    71  50  47 CALM      29.71F
6HR MIN TEMP:  60; 6HR MAX TEMP:  71;

$$

ORZ029>031-042>050-061>064-171900-
EASTERN OREGON


CITY           SKY/WX    TMP DP  RH WIND       PRES   REMARKS
REDMOND        CLOUDY    73  37  27 VRB6      29.82F
6HR MIN TEMP:  54; 6HR MAX TEMP:  73;

BEND           CLOUDY    70  39  32 CALM      29.85F
KLAMATH FALLS  PTSUNNY   73  32  22 S10G20    29.89F
6HR MIN TEMP:  51; 6HR MAX TEMP:  75;

LAKEVIEW       PTSUNNY   77  34  20 S20G29    29.96F
HERMISTON      CLOUDY    74  45  35 NW3       29.73F
6HR MIN TEMP:  55; 6HR MAX TEMP:  74;

PENDLETON      PTSUNNY   78  32  18 CALM      29.74F
6HR MIN TEMP:  56; 6HR MAX TEMP:  78;

JOHN DAY       CLOUDY    77  31  18 SE5       29.88R
MEACHAM        PTSUNNY   77  37  23 CALM      29.85F
6HR MIN TEMP:  44; 6HR MAX TEMP:  77;

LA GRANDE      CLOUDY    68  36  30 CALM      29.84F
6HR MIN TEMP:  52; 6HR MAX TEMP:  68;

BAKER CITY     CLOUDY    72  39  30 NE3       29.88F
6HR MIN TEMP:  46; 6HR MAX TEMP:  72;

BURNS          MOSUNNY   73  28  18 S8        29.95F
6HR MIN TEMP:  40; 6HR MAX TEMP:  74;

ROME             N/A     82  29  14 VRB3      29.92F
6HR MIN TEMP:  55; 6HR MAX TEMP:  82;

ONTARIO        CLOUDY    73  52  47 E5        29.86S
6HR MIN TEMP:  59; 6HR MAX TEMP:  73;

$$



USA.gov is the U.S. government's official web portal to all federal, state and local government web resources and services.